Regional Weather Roundup
Issued by NWS Wakefield, VA

Home | Current Version | Previous Version | Graphics & Text | Print | Product List | Glossary On
Versions: 1 2 3 4 5 6 7 8 9 10 11 12 13 14 15 16 17 18 19 20 21 22 23 24 25 26 27
000
ASUS41 KAKQ 200015
RWRAKQ

REGIONAL WEATHER ROUNDUP
NATIONAL WEATHER SERVICE WAKEFIELD VA
700 PM EST THU JAN 19 2017

Note: "fair" indicates few or no clouds below 12,000 feet with no
significant weather and/or obstructions to visibility. * = Denotes
station may not report precipitation (e.g., rain,snow,etc.),
thunder or fog.

VAZ042-051-052>054-056-200100-
NORTHERN VIRGINIA

CITY           SKY/WX    TMP DP  RH WIND       PRES   REMARKS
WASH NATIONAL  PTCLDY    47  37  68 S5        30.03S
DULLES         PTCLDY    38  34  85 CALM      30.03R
FORT BELVOIR   CLOUDY    40  35  84 CALM      30.04R
QUANTICO       CLOUDY    42  39  89 NW5       30.05R
FREDERICKSBRG* PTCLDY    43  38  83 CALM      30.03R
STAFFORD*      CLOUDY    39  37  93 CALM      30.07S
WARRENTON      CLOUDY    37  33  84 CALM      30.02S
CULPEPER*      CLOUDY    39  36  89 CALM      30.03S
MANASSAS*      NOT AVBL
LEESBURG*      CLEAR     41  37  87 CALM      30.03S
WINCHESTER     CLOUDY    36  34  93 CALM      30.00S
FRONT ROYAL*   FAIR      41  36  81 CALM      30.00S
LURAY*         FAIR      43  41  93 CALM      30.01R
$$

VAZ048-049-060>072-079>083-200100-
CENTRAL AND SOUTH CENTRAL VIRGINIA

CITY           SKY/WX    TMP DP  RH WIND       PRES   REMARKS
RICHMOND       CLOUDY    45  39  79 E3        30.03R
CHESTERFIELD*  FAIR      45  27  49 CALM      30.04R
PETERSBURG*    NOT AVBL
HANOVER        PTCLDY    41  37  86 CALM      30.04R
TAPPAHANNOCK*  PTCLDY    41  37  86 CALM      30.05R
QUINTON*       FAIR      43  40  89 W5        30.02S
CHARLOTTSVILLE CLOUDY    50  39  66 CALM      30.01R
GORDONSVILLE*  FAIR      43  39  87 CALM      30.02R
ORANGE*          N/A     41  39  93 CALM      30.04S
LOUISA*        CLOUDY    45  43  93 CALM      30.01S
BUMPASS*       FAIR      42  40  93 CALM      30.02S
FARMVILLE*     CLOUDY    50  41  69 CALM      30.00R
CREWE*         FAIR      46  43  88 CALM      30.01R
FORT PICKETT*  FAIR      47  37  66 W6        30.02R
CHASE CITY*    FAIR      44  42  93 CALM      30.01S
CLARKSVILLE*   FAIR      46  41  81 CALM      30.01S
SOUTH HILL*    CLEAR     41  40  95 CALM      30.07S
LAWRENCEVILLE* FAIR      45  40  83 CALM      30.02R
EMPORIA*       CLEAR     41  37  87 CALM      30.04S
$$

VAZ088>098-200100-
SOUTHEAST VIRGINIA

CITY           SKY/WX    TMP DP  RH WIND       PRES   REMARKS
NORFOLK        CLOUDY    44  37  76 SE3       30.04S
VIRGINIA BEACH CLOUDY    42  36  79 E6        30.04S
NORFOLK NAVAL  CLOUDY    42  36  79 CALM      30.06R
WEST POINT*    CLOUDY    42  37  80 E3        30.06R
SALUDA*        FAIR      40  37  90 CALM      30.05R
NEWPORT NEWS   CLOUDY    40  35  83 NE3       30.05R
LANGLEY AFB    CLEAR     42  36  79 NE3       30.04S
FORT EUSTIS    CLOUDY    44  35  69 CALM      30.02S
WILLIAMSBURG*  CLOUDY    45  37  76 CALM      30.05S
HR EXEC AP*    FAIR      37  34  87 CALM      30.04R
FRANKLIN*      CLEAR     44  39  84 CALM      30.04S
US460-WAKEFLD  CLOUDY    43  40  89 CALM      30.04R
$$

VAZ020-022-025-037-045-200100-
WEST CENTRAL AND SOUTHWEST VIRGINIA

CITY           SKY/WX    TMP DP  RH WIND       PRES   REMARKS
STAUNTON*      CLOUDY    44  39  82 CALM      30.01R
WAYNESBORO*    FAIR      47  38  72 CALM      30.00R
HOT SPRINGS VA CLOUDY    45  34  65 S7        29.98R
LYNCHBURG      CLOUDY    46  39  76 CALM      30.01R
DANVILLE       CLOUDY    45  40  82 CALM      30.00S
SOUTH BOSTON*  FAIR      47  40  77 CALM      30.01F
MARTINSVILLE   PTCLDY    44  38  78 CALM      30.02S
ROANOKE        CLOUDY    53  38  56 E7        30.01R
BLACKSBURG     CLOUDY    50  37  59 E5        30.01S
DUBLIN*        PTCLDY    51  37  57 SW6       29.99S
MARION*        CLOUDY    54  35  48 CALM      29.99S
HILLSVILLE*    MOCLDY    49  38  67 CALM      29.98R
RICHLANDS*     CLOUDY   N/A N/A N/A CALM      29.94F
WISE*          CLOUDY    54  34  47 S5        29.94F
ABINGDON*      CLOUDY    59  36  42 SE3       29.93F
$$

MDZ021>025-VAZ099-100-200100-
SOUTHERN MARYLAND AND THE DELMARVA PENINSULA

CITY           SKY/WX    TMP DP  RH WIND       PRES   REMARKS
PATUXENT RIVER MOCLDY    36  34  92 CALM      30.04R
BAY BRIDGE APT CLEAR     41  36  81 CALM      30.03S
LEONARDTOWN    CLOUDY    39  34  81 CALM      30.05R
DOVER          CLOUDY    39  38  94 CALM      30.02S
GEORGETOWN     CLOUDY    41  36  82 CALM      30.04S
EASTON         NOT AVBL
CAMBRIDGE      CLOUDY    36  36 100 CALM      30.03S
SALISBURY      CLOUDY    39  35  86 CALM      30.03S
OCEAN CITY     CLOUDY    40  39  97 CALM      30.04S
WALLOPS ISLAND CLOUDY    40  39  97 CALM      30.04F
ACCOMACK*      CLOUDY    39  37  93 CALM      30.04F
$$

NCZ012>017-030>032-200100-
NORTH CENTRAL AND EASTERN NORTH CAROLINA

CITY           SKY/WX    TMP DP  RH WIND       PRES   REMARKS
ROANOKE RAPIDS FAIR      45  41  87 CALM      30.03R
RALEIGH        MOCLDY    51  40  65 CALM      30.01S
ELIZABETH CITY PTCLDY    45  41  86 E5        30.05R
AHOSKIE*         N/A     44  40  84 CALM      30.04S
EDENTON*       PTCLDY    46  42  86 CALM      30.05R
CURRITUCK*     PTCLDY    45  41  85 E3        30.05F
KILL DEVIL HLS NOT AVBL
MANTEO         PTCLDY    44  43  96 S6        30.05F
CAPE HATTERAS  CLEAR     47  43  86 NE5       30.05S FOG
TARBORO*       NOT AVBL
GOLDSBORO      CLOUDY    50  47  88 E5        30.00S
WASHINGTON     CLOUDY    46  42  84 CALM        N/A
GREENVILLE     PTCLDY    45  43  93 CALM      30.05S FOG
NEW BERN       CLEAR     50  43  77 SE5       30.05R
WILMINGTON     PTCLDY    49  46  90 CALM      30.03S
$$

VAZ048-200100-
ELSEWHERE

CITY           SKY/WX    TMP DP  RH WIND       PRES   REMARKS
HARRISBURG PA  CLOUDY    37  35  92 CALM      30.01F
BALTIMORE      PTCLDY    42  36  79 CALM      30.02R
ANNAPOLIS      CLEAR     42  36  79 CALM      30.03R
ANDREWS AFB    CLEAR     40  36  84 CALM      30.02R
PHILADELPHIA   CLOUDY    44  34  67 VRB3      30.04F
HENDERSON NC   PTCLDY    45  38  78 CALM      30.01S
GREENSBORO     CLOUDY    53  38  56 CALM      29.99S
ROCKY MOUNT    CLOUDY    44  43  96 CALM      30.02F
$$

VAZ100-200100-
MARINE

STATION/POSITION TIME  TEMP    WIND        PRES    WAVE   SWELL
                       AIR SEA DIR/SP/G            HT/PER HT/PER
                 (UTC) (F)     (DEG/KT/KT) (MB)    (FT/S) (FT/S)
CAPE MAY NJ      2342   43 40   10/  2/  4 1016.4F
LEWES DE         2342   43 42   40/  3/  4 1016.6S
OCEAN-CITY-INLET 2342   42 43  230/  3/  4 1017.4F
WACHAPREAGUE VA  2342   44 50  270/  2/  3 1017.2F
THOMAS POINT MD  0000   42 39  220/  8/  8   N/A
GOOSES REEF MD   2350   41     240/  2/  2 1017.5R
COVE POINT MD    2342   44     210/  5/  6 1017.5S
SOLOMONS ISLAND  2342   43 41  100/  2/  3   N/A
BISHOPS HEAD MD  2342   43 45  140/  1/  2 1017.1F
PINEY POINT MD   2336          200/  5/  5   N/A
POTOMAC MD       2350   41     220/  4/  6 1016.3R
CAMBRIDGE MD     2342   43 40  190/  3/  4 1016.2F
LEWISETTA VA     2342   44 44  210/  3/  3 1017.0R
RAPPAHANNOCK LGT 2336          120/  4/  4 1017.8F
STINGRAY PT      2350   42     200/  4/  4 1018.0R
YORK RVR RNG VA  2342   45     130/  5/  6 1016.8S
YORKTOWN VA      2342   44 43  120/  4/  4 1017.1S
JAMESTOWN VA     2350   46     100/  6/  8   N/A
DOMINION TERM VA 2342   45      70/  6/  8 1017.3R
KIPTOPEKE VA     2342      44   CALM  /  1   N/A
CHES BAY BRIDGE  2342   45 46   70/  6/  7 1017.2F
CAPE HENRY VA    2342   45     130/  4/  4   N/A
WILLOUBY STN VA  2342   45      90/  5/  5 1018.0F
S CRANEY ISL VA  2342   46      70/  4/  4 1017.0S
CAPE HENRY BUOY  2342      48                N/A     3/ 9   2/11
OFFSHORE WE BUOY 2351      49                N/A     4/10   2/11
64NM E OF VA BCH 2350   48 56  300/  6/  8 1017.7R   5/10   5/10
DUCK PIER NC     2342   45 45   70/  9/  9 1017.0F
44100 DUCK FRF   2335      48                N/A     5/10   2/11
44056 DUCK FRF   2330      45                N/A     4/11   2/11
OREGON INLET NC  2342   45 49   80/  2/  3 1017.5F
HATTERAS NC      2342   47 55   70/  2/  4 1017.2S
DIAMOND SHLS NC  2350   54 77   20/  6/ 10 1017.7R   5/10   5/10
CAPE LOOKOUT NC  0000   55      40/  4/  6 1016.9R
$$




USA.gov is the U.S. government's official web portal to all federal, state and local government web resources and services.